Temp_Advection
nan nan nan nan nan nan nan nan nan nan nan nan nan nan nan nan nan nan nan nan nan nan nan nan nan nan nan nan nan nan nan nan nan nan nan nan nan nan nan nan nan nan nan
nan 0 -0 -0 0 0 0 0 0 0 0 0 0 0 0 1 0 0 0 0 0 0 0 0 0 0 0 0 0 0 0 0 0 0 0 0 -0 0 0 1 1 0 nan
nan -0 -0 -0 0 0 0 0 0 0 0 1 0 0 1 1 0 1 1 0 0 0 0 0 0 0 1 1 0 0 -0 -0 0 0 0 0 0 0 1 1 1 0 nan
nan -0 -0 0 0 0 0 0 1 1 1 1 0 0 1 1 1 0 0 -0 0 0 0 0 0 1 1 0 0 0 -0 0 1 0 0 -0 -0 0 1 1 0 0 nan
nan 0 0 1 1 0 1 1 1 1 1 1 1 1 0 0 0 -0 -0 -0 -0 0 -0 0 1 1 0 0 -0 -0 0 0 0 0 0 -0 -0 0 0 1 1 1 nan
nan 1 1 1 0 1 1 2 2 1 1 1 0 0 -0 -0 0 1 -0 -0 -0 0 1 0 0 0 0 0 0 -0 0 0 0 0 0 -0 0 -0 -0 0 1 1 nan
nan 1 1 1 2 2 2 2 1 1 -0 -0 -0 -0 -0 -1 0 0 1 1 1 1 0 0 -0 0 0 -0 0 0 0 0 0 0 0 0 -0 -0 -0 0 0 0 nan
nan 1 3 2 2 2 1 0 -0 -0 0 0 -0 -0 -0 -0 -0 0 0 1 1 1 0 -0 -0 -0 0 0 0 0 0 0 0 0 -0 -0 0 0 0 -0 -0 1 nan
nan 3 2 2 1 -0 -0 0 -0 -0 0 0 -0 -0 -0 -0 -0 0 0 0 0 0 -0 -0 0 0 0 -0 -0 -0 0 0 -0 -0 -0 -0 0 0 0 0 0 0 nan
nan 2 1 0 -0 0 0 1 0 -0 0 0 0 -0 0 1 0 0 -0 -0 -0 -0 -0 -0 -0 0 0 0 0 0 0 0 0 -0 -0 -0 -0 -0 -0 -0 -0 -0 nan
nan -0 -0 -0 0 0 2 1 -0 0 0 -0 0 1 1 0 0 0 -0 -0 -0 0 0 -0 -0 -0 -0 -0 -0 -0 0 0 -0 -0 -0 -0 -0 -0 -0 -0 -0 0 nan
nan -0 0 0 0 0 1 0 0 0 -0 0 0 1 1 1 0 -0 0 -0 0 0 -0 -0 -0 -0 -0 -0 0 0 -0 -0 -0 -0 -0 -0 -0 -0 -0 -0 -0 -0 nan
nan 1 1 0 0 1 0 0 0 -0 0 0 0 0 0 0 0 0 0 -0 0 0 -0 -0 -0 -0 -0 -0 -0 -0 -0 -0 -0 0 -0 -0 -0 -0 -0 -0 -0 0 nan
nan 0 0 0 0 0 0 0 0 0 0 0 0 -0 0 0 0 0 0 0 0 0 0 -0 -0 -0 -0 -0 -0 -0 -0 -0 -0 -0 -0 -0 -0 -0 0 0 0 0 nan
nan 0 0 0 0 0 0 0 0 0 0 -0 0 0 0 0 0 0 0 0 0 0 0 0 0 -0 0 0 -0 -0 -0 -0 -0 -0 -0 -0 -0 -0 0 0 0 0 nan
nan 0 0 0 0 0 0 0 0 0 0 0 0 0 0 0 0 0 0 0 0 0 0 0 0 0 0 0 -0 -0 -0 -0 -0 -0 -0 -0 -0 -0 -0 0 0 0 nan
nan 0 0 0 0 1 1 0 1 1 0 0 0 0 0 0 0 0 0 0 0 0 0 0 0 0 0 0 -0 -0 -0 -0 -0 -0 -0 -0 -0 0 0 -0 -0 -0 nan
nan 0 0 0 1 1 1 1 1 0 0 0 0 0 0 0 0 0 0 0 0 0 0 -0 -0 -0 -0 -0 -0 -0 0 0 0 -0 -0 -0 -0 -0 0 0 0 -0 nan
nan 0 0 1 1 1 1 0 0 0 0 0 0 0 0 0 0 0 0 0 0 0 0 0 0 0 0 -0 -0 -0 0 0 0 0 0 0 0 -0 -0 0 -0 -0 nan
nan 1 1 1 1 1 1 0 0 0 0 0 0 0 0 0 0 0 0 0 0 0 0 0 0 0 0 0 -0 -0 -0 -0 -0 0 0 0 0 0 0 -0 -0 -0 nan
nan 1 1 2 1 1 0 0 0 0 0 0 0 0 0 0 0 0 0 0 0 0 0 0 0 0 0 0 0 0 0 0 0 0 0 0 0 0 0 0 0 0 nan
nan 2 1 1 1 0 0 0 0 0 0 0 0 0 0 0 0 0 0 0 0 0 0 0 0 0 0 0 0 0 0 0 0 0 0 0 0 0 0 0 0 0 nan
nan 1 0 0 0 0 0 -0 0 0 0 0 0 0 0 0 0 0 0 0 0 0 0 0 0 0 0 0 0 0 0 0 -0 -0 0 0 0 0 0 0 -0 -0 nan
nan 0 0 0 0 0 0 0 0 0 0 0 0 0 0 0 0 0 0 0 0 0 0 0 0 0 0 0 0 0 0 0 0 0 0 0 0 0 0 0 0 0 nan
nan 0 0 0 0 1 0 0 0 0 0 0 0 0 0 0 0 0 0 0 0 0 0 0 0 0 0 0 0 0 0 0 0 -0 0 -0 0 0 0 0 0 0 nan
nan nan nan nan nan nan nan nan nan nan nan nan nan nan nan nan nan nan nan nan nan nan nan nan nan nan nan nan nan nan nan nan nan nan nan nan nan nan nan nan nan nan nan
Wind_Speed
27 27 26 25 23 19 18 16 14 13 14 15 15 15 16 15 14 15 15 14 14 12 12 12 13 14 15 16 17 15 16 17 18 18 17 15 17 17 20 21 22 19 17
28 27 27 23 21 20 18 16 15 16 16 17 17 18 19 18 18 19 17 16 18 16 16 15 16 17 18 20 19 19 18 18 19 17 18 16 16 17 18 21 22 20 16
28 28 26 24 23 21 18 18 17 18 19 19 17 16 19 21 21 21 20 21 20 20 20 21 20 20 19 21 18 16 19 19 23 21 21 19 18 18 20 22 22 19 16
28 27 25 23 21 21 22 22 21 22 21 19 17 17 19 21 19 20 20 19 20 21 21 22 21 20 17 16 19 18 19 19 21 20 21 22 21 18 20 22 23 21 18
29 28 26 25 26 27 26 27 25 23 20 17 16 14 13 12 15 16 18 20 21 20 23 23 15 14 14 15 16 19 20 20 20 20 20 22 22 21 22 22 25 24 19
31 31 31 32 32 30 28 27 23 19 17 11 7 11 18 20 19 23 26 26 21 28 18 16 18 21 18 16 17 19 18 18 18 19 20 22 23 21 21 24 27 25 22
36 33 36 36 33 29 25 20 17 12 2 8 13 15 16 20 24 23 25 26 23 18 18 17 21 20 20 18 20 17 16 17 18 18 17 16 18 20 21 26 26 27 29
35 34 36 32 27 22 16 10 4 13 14 12 13 19 19 21 23 24 19 17 16 16 15 16 18 19 19 17 16 16 17 18 18 17 17 17 17 17 22 23 25 29 28
37 33 30 26 23 17 3 13 18 20 17 13 14 14 17 17 19 18 15 12 11 10 12 13 15 15 15 15 15 16 17 18 19 19 18 18 19 20 18 18 24 24 25
35 34 29 23 11 4 13 20 14 15 12 11 11 11 15 13 12 12 13 9 6 8 11 12 13 14 15 15 15 15 15 15 15 15 13 14 15 15 17 18 19 25 27
35 28 18 12 8 17 24 9 14 12 10 9 11 12 10 11 10 8 6 6 8 9 10 12 12 10 10 10 10 10 10 10 10 10 9 7 9 10 11 12 16 22 25
25 18 15 12 11 10 10 13 12 11 10 10 10 9 9 10 10 7 7 8 8 10 5 3 5 5 6 6 6 6 6 6 6 7 7 7 7 6 5 5 7 13 17
21 18 15 11 11 12 12 11 8 6 8 9 9 9 9 9 9 10 9 10 9 8 5 4 4 4 4 4 4 1 2 5 7 6 7 7 7 5 7 5 1 5 11
16 15 13 11 12 12 10 7 6 5 4 7 8 9 6 7 8 9 11 10 11 8 5 4 3 3 3 2 1 2 3 4 6 7 6 6 6 3 5 8 5 4 5
16 14 14 13 12 12 11 9 7 4 5 6 6 6 5 5 6 8 9 5 6 6 5 3 3 3 1 2 2 3 3 4 5 6 7 7 7 6 3 2 5 6 8
18 17 15 15 14 14 12 11 6 6 4 2 1 3 6 6 6 6 7 4 4 2 3 2 1 1 2 2 2 2 2 4 6 7 7 9 10 10 9 7 2 3 4
15 15 15 15 16 16 15 8 6 5 1 2 4 6 6 6 7 6 5 4 5 4 4 4 4 3 3 2 2 2 2 3 2 4 6 8 7 7 9 11 13 10 6
16 13 14 14 16 17 12 8 6 4 4 5 6 6 6 7 8 7 6 6 7 7 7 4 2 2 3 4 4 4 3 2 3 3 4 6 6 6 6 7 6 8 10
18 16 13 14 16 14 9 7 6 5 5 8 7 7 8 8 9 10 9 8 7 8 7 4 2 1 1 1 2 2 2 2 2 3 2 2 2 2 4 5 5 4 6
16 12 14 15 16 13 10 6 7 7 9 8 6 7 10 11 12 13 11 10 8 9 8 6 6 5 4 3 3 1 1 2 1 3 2 3 2 1 2 2 4 4 5
20 19 17 17 15 13 9 9 9 11 11 8 7 7 8 9 9 11 11 10 9 8 6 4 5 5 4 3 4 2 2 1 2 2 2 1 2 1 2 3 2 2 3
21 19 17 17 16 14 13 11 11 11 11 10 9 9 10 11 12 11 11 11 9 10 8 7 5 7 6 5 5 5 3 3 3 5 5 3 2 2 3 2 2 3 2
18 18 19 18 16 15 13 12 12 12 11 10 10 10 11 13 12 10 12 11 8 8 7 7 7 7 7 6 7 6 4 3 3 3 4 3 2 3 3 2 2 2 5
18 18 18 16 14 13 12 13 13 12 11 11 11 10 11 13 12 10 12 10 7 5 3 4 8 7 7 5 6 6 5 3 3 3 3 3 4 4 4 5 3 4 3
17 15 13 14 13 13 12 12 13 13 13 12 11 11 12 13 14 13 12 10 8 7 5 6 5 7 7 7 6 6 5 5 5 4 3 3 4 5 6 6 5 4 4
13 12 11 12 12 13 14 13 14 14 15 14 13 13 13 13 14 16 14 14 10 9 9 9 9 8 10 9 8 7 7 7 6 6 5 4 4 5 4 5 6 6 7
Wind_Direction
196 197 199 203 207 208 215 219 223 229 236 240 248 253 255 257 265 272 272 273 277 278 283 290 292 289 284 290 293 294 294 296 293 296 297 286 282 279 270 256 258 254 258
199 202 205 209 211 216 223 226 235 244 249 245 244 252 250 253 257 268 266 273 287 283 273 272 279 272 273 275 280 285 292 293 291 302 305 298 278 271 264 260 255 257 255
200 203 206 212 214 221 230 235 242 243 239 239 236 239 246 247 256 259 256 257 264 267 270 272 276 276 272 266 267 273 288 291 284 279 287 289 287 274 258 251 249 251 252
199 203 209 215 221 226 231 235 238 234 238 241 248 253 253 255 260 261 264 276 281 284 283 277 282 275 269 272 283 284 285 281 277 275 279 278 278 266 259 248 242 241 242
207 211 215 218 223 225 227 229 225 221 234 235 232 243 268 292 289 294 296 295 296 295 302 278 265 261 264 277 282 292 287 280 272 273 276 274 273 261 259 253 244 239 236
217 220 220 217 221 223 221 217 217 231 211 214 237 300 301 289 283 296 293 288 291 293 270 269 283 285 288 283 285 286 284 279 276 275 278 276 271 268 261 252 245 227 224
216 219 218 218 217 210 202 204 189 166 115 334 309 303 303 298 295 288 289 283 275 270 266 269 279 283 280 280 282 282 283 285 288 285 276 272 264 261 260 251 251 246 248
210 210 210 204 196 187 173 144 79 319 309 303 291 288 286 287 293 295 292 283 273 270 270 276 277 274 275 277 278 283 289 288 286 286 284 278 269 260 255 259 263 253 246
204 202 189 182 173 146 356 324 314 303 294 277 272 289 299 296 293 293 296 295 282 270 273 271 272 273 277 282 288 291 290 291 291 289 287 281 273 266 256 252 248 249 238
194 171 166 158 162 277 304 302 300 259 246 260 276 286 281 280 290 302 308 304 289 283 275 274 271 274 280 285 286 288 290 293 295 299 298 292 288 277 267 253 254 251 245
165 162 165 200 235 280 297 235 224 238 244 254 266 271 287 301 305 301 292 278 279 278 281 276 273 279 283 286 289 289 293 299 310 324 328 318 305 296 279 260 243 241 248
165 182 197 222 264 260 209 218 225 225 242 265 279 286 289 299 314 299 276 267 272 282 284 294 295 288 290 294 296 302 307 324 340 345 357 354 344 338 318 284 258 236 246
186 196 198 178 196 211 206 208 214 252 280 296 305 302 304 313 302 294 281 279 259 264 275 293 308 304 306 309 314 327 5 355 358 356 12 14 19 32 24 17 344 219 227
185 175 181 205 194 190 188 197 226 245 287 302 304 318 315 307 307 302 301 281 238 246 253 291 300 321 327 325 20 52 42 38 24 17 24 31 42 105 63 58 57 89 165
184 192 194 189 187 193 192 201 207 260 309 318 316 315 299 291 291 289 308 280 231 232 229 266 293 306 265 136 107 86 58 22 26 33 41 58 65 73 89 104 98 106 132
193 187 187 190 197 201 201 204 235 280 305 329 273 312 290 259 267 273 298 269 212 189 184 223 239 199 129 107 117 128 37 56 79 72 58 61 64 71 70 71 129 184 161
189 193 194 198 204 210 207 215 246 246 149 306 273 268 270 246 244 251 273 243 176 184 170 157 144 118 88 92 86 102 107 82 121 95 92 93 82 82 80 68 65 72 100
180 187 197 207 213 209 216 233 235 237 247 231 249 257 243 228 226 236 240 224 219 207 187 168 135 107 85 74 85 95 122 120 108 111 112 101 87 91 87 74 85 64 66
188 193 203 216 215 212 224 236 242 256 215 229 250 244 224 218 220 230 233 228 223 209 208 204 204 201 189 112 122 123 179 209 254 205 187 168 143 92 99 86 98 96 76
197 209 219 214 207 207 210 223 232 225 222 225 244 240 227 227 230 232 229 220 215 208 218 230 233 250 243 195 173 154 32 356 339 181 213 210 193 170 127 97 102 97 99
208 207 205 209 211 209 219 237 227 218 220 226 237 243 235 227 231 225 217 214 210 209 206 225 220 237 245 225 218 237 271 268 163 160 183 129 127 145 168 187 148 142 119
209 212 205 200 199 209 217 243 226 213 212 223 230 234 222 214 208 210 206 208 212 217 225 244 240 233 240 243 232 222 234 223 219 224 211 236 200 149 173 195 205 189 204
209 203 197 203 207 214 231 230 220 208 213 225 229 226 222 208 206 209 203 205 219 229 229 240 249 244 236 240 218 203 202 189 169 160 184 211 205 178 166 161 137 135 163
204 202 201 209 221 224 219 217 208 209 214 223 224 220 205 202 196 191 185 190 195 194 217 284 241 248 221 224 194 188 192 208 199 182 186 199 216 220 215 219 202 174 180
192 203 213 216 212 208 209 209 210 208 213 223 215 206 196 196 201 200 197 201 210 219 245 270 251 230 220 210 204 211 210 205 201 201 208 214 208 219 227 224 230 218 232
197 200 205 205 200 203 209 211 210 213 214 217 216 214 216 217 217 216 215 223 227 236 250 264 264 229 219 214 211 218 220 213 216 224 235 234 229 229 235 234 236 242 243
Height
1481 1486 1490 1493 1496 1499 1502 1505 1509 1512 1514 1516 1518 1520 1520 1521 1522 1521 1521 1523 1523 1523 1523 1523 1524 1525 1525 1525 1526 1524 1523 1522 1521 1521 1520 1520 1519 1519 1517 1517 1517 1516 1518
1478 1483 1487 1490 1494 1497 1500 1504 1506 1508 1510 1513 1514 1516 1518 1517 1517 1519 1519 1519 1521 1520 1518 1518 1519 1520 1520 1521 1521 1521 1520 1519 1519 1517 1517 1515 1516 1515 1513 1513 1513 1514 1515
1476 1481 1485 1488 1491 1494 1498 1501 1503 1505 1506 1508 1510 1511 1513 1513 1513 1512 1512 1513 1514 1516 1516 1514 1514 1513 1514 1515 1516 1516 1516 1514 1514 1512 1512 1511 1511 1511 1510 1509 1510 1511 1513
1473 1477 1481 1484 1488 1491 1494 1497 1498 1500 1502 1504 1505 1506 1508 1508 1509 1509 1507 1508 1508 1509 1510 1510 1508 1509 1510 1510 1512 1511 1511 1510 1510 1508 1508 1507 1507 1506 1506 1505 1506 1508 1509
1470 1474 1478 1483 1486 1488 1490 1492 1494 1495 1496 1498 1499 1501 1504 1503 1507 1507 1508 1508 1506 1506 1504 1505 1504 1504 1505 1506 1507 1506 1505 1503 1503 1502 1502 1502 1502 1501 1502 1502 1502 1504 1505
1465 1469 1473 1477 1481 1483 1486 1488 1490 1493 1494 1497 1499 1498 1501 1503 1504 1504 1505 1505 1501 1501 1501 1501 1501 1501 1500 1502 1502 1501 1500 1498 1498 1497 1496 1496 1497 1497 1497 1498 1498 1499 1501
1458 1463 1467 1471 1475 1479 1481 1484 1484 1485 1488 1494 1497 1498 1501 1502 1500 1499 1499 1497 1496 1495 1496 1496 1497 1496 1496 1496 1497 1496 1495 1495 1493 1492 1492 1491 1492 1493 1493 1493 1494 1496 1496
1454 1458 1462 1467 1472 1478 1480 1483 1484 1491 1484 1488 1489 1493 1495 1496 1494 1493 1493 1493 1491 1491 1492 1492 1491 1491 1491 1491 1490 1490 1490 1490 1490 1489 1487 1487 1488 1488 1488 1489 1490 1492 1493
1449 1454 1459 1464 1470 1475 1480 1485 1487 1485 1485 1482 1487 1489 1489 1490 1490 1490 1489 1488 1488 1488 1488 1488 1489 1488 1488 1488 1487 1486 1486 1485 1485 1484 1483 1482 1482 1483 1484 1484 1484 1487 1488
1444 1451 1458 1464 1470 1473 1477 1479 1481 1480 1480 1483 1484 1485 1486 1486 1485 1485 1485 1486 1486 1486 1486 1486 1486 1484 1485 1484 1484 1483 1481 1482 1481 1480 1480 1478 1477 1477 1478 1479 1480 1481 1483
1443 1450 1457 1461 1465 1469 1470 1473 1477 1478 1478 1480 1481 1481 1484 1485 1485 1484 1483 1484 1485 1484 1483 1484 1484 1482 1482 1482 1481 1480 1479 1479 1479 1478 1477 1475 1474 1473 1473 1473 1474 1476 1478
1444 1449 1453 1456 1459 1463 1467 1472 1474 1476 1477 1478 1480 1480 1481 1481 1482 1482 1482 1482 1482 1481 1481 1481 1481 1480 1480 1480 1480 1479 1479 1478 1478 1477 1476 1474 1472 1472 1471 1471 1471 1473 1476
1443 1448 1452 1454 1458 1462 1464 1468 1472 1475 1476 1478 1478 1478 1479 1480 1481 1481 1481 1481 1481 1480 1480 1480 1480 1480 1479 1480 1479 1479 1479 1478 1477 1477 1476 1475 1474 1473 1473 1472 1472 1473 1475
1442 1446 1451 1455 1457 1462 1463 1466 1469 1471 1473 1474 1476 1476 1477 1477 1478 1479 1479 1478 1478 1478 1479 1479 1479 1480 1480 1480 1479 1479 1479 1478 1478 1477 1476 1476 1475 1475 1475 1475 1475 1475 1476
1441 1445 1449 1453 1456 1462 1462 1465 1467 1469 1471 1472 1474 1475 1475 1475 1476 1477 1478 1477 1477 1478 1478 1479 1479 1480 1480 1480 1480 1480 1480 1479 1479 1479 1478 1478 1478 1478 1478 1478 1479 1480 1481
1440 1444 1447 1452 1457 1461 1461 1461 1465 1465 1466 1470 1470 1472 1473 1474 1474 1476 1477 1476 1477 1478 1479 1479 1480 1480 1480 1480 1480 1480 1480 1481 1481 1481 1481 1480 1480 1480 1480 1480 1480 1482 1483
1441 1445 1448 1450 1455 1458 1460 1458 1460 1462 1463 1465 1468 1469 1471 1472 1473 1474 1475 1476 1477 1478 1479 1480 1481 1481 1481 1481 1481 1481 1481 1482 1482 1483 1483 1483 1483 1483 1483 1483 1483 1483 1484
1440 1444 1447 1450 1452 1455 1456 1455 1457 1457 1459 1464 1466 1466 1468 1470 1471 1473 1474 1475 1477 1478 1480 1481 1481 1482 1482 1482 1481 1482 1482 1483 1484 1484 1484 1485 1485 1485 1485 1486 1486 1486 1487
1439 1442 1443 1448 1450 1451 1452 1453 1454 1455 1457 1462 1463 1463 1466 1467 1469 1471 1472 1474 1476 1477 1479 1480 1481 1481 1482 1482 1482 1482 1483 1483 1483 1484 1485 1485 1486 1486 1487 1487 1488 1488 1489
1438 1439 1442 1444 1447 1448 1449 1450 1452 1453 1457 1458 1460 1462 1463 1465 1467 1468 1470 1472 1474 1476 1478 1479 1480 1481 1481 1482 1482 1482 1482 1482 1482 1483 1484 1485 1486 1487 1488 1489 1489 1490 1491
1435 1436 1439 1443 1443 1444 1446 1447 1448 1450 1454 1456 1458 1459 1461 1463 1464 1466 1468 1470 1472 1475 1476 1478 1479 1480 1481 1481 1482 1482 1482 1482 1482 1483 1484 1485 1486 1487 1488 1489 1490 1491 1492
1432 1431 1434 1437 1440 1440 1442 1444 1445 1448 1450 1453 1455 1457 1458 1460 1462 1464 1467 1469 1472 1474 1475 1477 1478 1479 1480 1480 1481 1481 1481 1482 1482 1483 1484 1485 1486 1487 1488 1489 1489 1491 1492
1424 1427 1430 1433 1434 1436 1438 1440 1443 1445 1447 1450 1453 1454 1456 1458 1460 1462 1465 1468 1470 1472 1474 1475 1476 1477 1478 1479 1479 1480 1481 1481 1482 1483 1483 1484 1485 1487 1488 1489 1489 1490 1491
1419 1423 1425 1427 1429 1431 1434 1437 1440 1443 1445 1448 1451 1452 1454 1457 1459 1461 1464 1467 1469 1470 1472 1473 1474 1475 1476 1477 1478 1479 1480 1480 1481 1482 1483 1484 1485 1486 1487 1488 1489 1490 1491
1415 1418 1420 1423 1424 1427 1431 1434 1437 1440 1443 1446 1448 1451 1453 1455 1458 1460 1462 1465 1467 1468 1470 1471 1472 1473 1474 1475 1476 1477 1478 1479 1480 1481 1482 1483 1484 1485 1486 1487 1488 1489 1490
1410 1414 1416 1419 1421 1425 1429 1431 1435 1438 1441 1443 1446 1449 1451 1453 1456 1458 1460 1463 1464 1466 1467 1468 1469 1470 1472 1474 1475 1476 1476 1478 1479 1480 1481 1482 1482 1483 1485 1486 1487 1488 1489